Weather History for Spokane, WA

Change the Weather History Date:

Friday, July 19, 2013

  Actual Average Record
Temperature  
Mean Temperature 79 °F 71 °F  
Max Temperature 93 °F 85 °F 101 °F (1979)
Min Temperature 64 °F 57 °F 45 °F (1996)
Degree Days  
Heating Degree Days 0 1  
Month to date heating degree days 0 26  
Since 1 June heating degree days 140 162  
Since 1 July heating degree days 0 26  
Cooling Degree Days 14 7  
Month to date cooling degree days 153 94  
Year to date cooling degree days 231 157  
Since 1 June cooling degree days 201 143  
Growing Degree Days 28 (Base 50)    
Moisture  
Dew Point 41 °F    
Average Humidity 33    
Maximum Humidity 52    
Minimum Humidity 13    
Precipitation  
Precipitation 0.00 in 0.02 in 0.62 in (1924)
Month to date precipitation T 0.44  
Year to date precipitation 6.79 9.32  
Snow  
Snow 0.00 in 0.00 in - ()
Month to date snowfall 0.0 0.0  
Since 1 June snowfall 0.0 0.0  
Since 1 July snowfall 0.0 0.0  
Snow Depth 0.00 in    
Sea Level Pressure  
Sea Level Pressure 29.97 in    
Wind  
Wind Speed 4 mph (SSW)    
Max Wind Speed 13 mph    
Max Gust Speed 17 mph    
Visibility 10 miles    
Events      
T = Trace of Precipitation, MM = Missing Value Source: NWS Daily Summary

Daily Weather History Graph

Daily Weather History Graph

Search for Another Location

Airport:

Trip Planner

Search our weather history database for the weather conditions in past years. The results will help you decide how hot, cold, wet, or windy it might be!

Date:

Astronomy

Jul. 19, 2013 Rise Set
Actual Time 5:12 AM PDT 8:39 PM PDT
Civil Twilight 4:34 AM PDT 9:17 PM PDT
Nautical Twilight 3:43 AM PDT 10:08 PM PDT
Astronomical Twilight 2:36 AM PDT 11:14 PM PDT
Moon 5:46 PM PDT (7/19) 1:59 AM PDT (7/19)
Length of Visible Light 16h 43m
Length of Day
15h 27m
Waxing Gibbous, 87% of the Moon is Illuminated
Jul 19
Waxing Gibbous
Jul 22
Full
Jul 29
Last Quarter
Aug 6
New
Aug 14
First Quarter

Hourly Weather History & Observations

Time (PDT) Temp. Dew Point Humidity Pressure Visibility Wind Dir Wind Speed Gust Speed Precip Events Conditions
12:53 AM 70.0 °F 43.0 °F 38% 30.01 in 10.0 mi Calm Calm - N/A   Clear
1:53 AM 69.1 °F 39.9 °F 35% 30.01 in 10.0 mi Calm Calm - N/A   Clear
2:53 AM 64.9 °F 42.1 °F 43% 30.01 in 10.0 mi Calm Calm - N/A   Clear
3:53 AM 66.9 °F 43.0 °F 42% 30.01 in 10.0 mi SE 3.5 mph - N/A   Partly Cloudy
4:53 AM 64.9 °F 44.1 °F 47% 30.02 in 10.0 mi Calm Calm - N/A   Partly Cloudy
5:53 AM 64.0 °F 46.9 °F 54% 30.03 in 10.0 mi Calm Calm - N/A   Partly Cloudy
6:53 AM 66.0 °F 48.0 °F 52% 30.03 in 10.0 mi NE 4.6 mph - N/A   Partly Cloudy
7:53 AM 69.1 °F 50.0 °F 51% 30.04 in 10.0 mi ENE 4.6 mph - N/A   Clear
8:53 AM 73.0 °F 50.0 °F 44% 30.03 in 10.0 mi ENE 5.8 mph - N/A   Clear
9:53 AM 78.1 °F 48.9 °F 36% 30.03 in 10.0 mi ENE 5.8 mph - N/A   Clear
10:53 AM 82.9 °F 45.0 °F 26% 30.02 in 10.0 mi East 3.5 mph - N/A   Partly Cloudy
11:53 AM 88.0 °F 44.1 °F 22% 30.01 in 10.0 mi ESE 4.6 mph - N/A   Partly Cloudy
12:53 PM 88.0 °F 39.9 °F 18% 29.99 in 10.0 mi Calm Calm - N/A   Partly Cloudy
1:53 PM 90.0 °F 36.0 °F 15% 29.98 in 10.0 mi Variable 3.5 mph - N/A   Partly Cloudy
2:53 PM 90.0 °F 36.0 °F 15% 29.96 in 10.0 mi Variable 3.5 mph - N/A   Partly Cloudy
3:53 PM 93.0 °F 36.0 °F 13% 29.94 in 10.0 mi WNW 9.2 mph - N/A   Partly Cloudy
4:53 PM 91.9 °F 36.0 °F 14% 29.92 in 10.0 mi Calm Calm - N/A   Partly Cloudy
5:53 PM 91.9 °F 35.1 °F 13% 29.90 in 10.0 mi WSW 5.8 mph - N/A   Partly Cloudy
6:53 PM 91.9 °F 33.1 °F 12% 29.89 in 10.0 mi West 10.4 mph - N/A   Clear
7:53 PM 89.1 °F 33.1 °F 14% 29.89 in 10.0 mi West 5.8 mph - N/A   Clear
8:53 PM 82.0 °F 36.0 °F 19% 29.90 in 10.0 mi West 4.6 mph - N/A   Clear
9:53 PM 79.0 °F 39.0 °F 24% 29.91 in 10.0 mi WSW 3.5 mph - N/A   Clear
10:53 PM 75.9 °F 39.9 °F 27% 29.90 in 10.0 mi SW 6.9 mph - N/A   Clear
11:53 PM 73.9 °F 39.0 °F 28% 29.90 in 10.0 mi South 5.8 mph - N/A   Clear